Location: Go�ngahuizen
(53.0821°N, 5.8849°E)
Time: 09:21:04
(UTC+00:00)

Cosmos 1980 Rocket - Pass Details

Date: 09 April 2020
Orbit: 828 x 851 km, 71.0° (Epoch: 06 June)

Event Time Altitude Azimuth Distance (km) Brightness Sun altitude
Rises 19:50:42 0° 328° (NNW) 3,386 6.6 -12.4°
Reaches altitude 10° 19:53:27 10° 339° (NNW) 2,452 5.5 -12.8°
Maximum altitude 19:58:21 30° 40° (NE) 1,475 3.4 -13.4°
Enters shadow 20:02:09 15° 93° (E) 2,123 3.8 -13.8°
